#timestamp,LO_Frequency,Hit,StdDev 
1703145615.2,286047002.7,N
1703145635.1,286047000.0,N
1703145636.0,286047000.0,N
1703145655.8,286047000.1,N
1703145675.6,286047000.0,N
1703145695.5,286047002.5,N
1703145715.3,286047001.7,N
1703145735.1,286046999.8,N
1703145755.9,286047002.5,N
1703145775.7,286046999.9,N
1703145795.6,286047000.9,N
1703145815.4,286047002.4,N
1703145835.2,286047001.6,N
1703145855.1,286047002.1,N
1703145856.0,286047002.1,N
1703145875.8,286047004.4,N
1703145895.7,286047004.4,N
1703145915.5,286047004.4,N
1703145935.4,286047004.2,N
1703145955.2,286047003.7,N
1703145975.1,286047003.5,N
1703145976.0,286047003.5,N
1703145995.8,286047003.1,N
1703146015.7,286047003.1,N
1703146035.5,286047003.8,N
1703146055.3,286047003.9,N
1703146075.2,286047003.9,N
1703146095.9,286047003.5,N
1703146115.7,286047001.8,N
1703146135.6,286047004.0,N
1703146155.4,286047003.6,N
1703146175.3,286047004.2,N
1703146195.1,286047003.4,N
1703146196.0,286047003.4,N
1703146215.8,286047005.9,Y
1703146235.7,286046999.7,P
1703146255.5,286047002.5,N
1703146275.3,286047002.6,N
1703146295.2,286047002.4,N
1703146315.0,286047002.7,N
1703146346.0,286047002.2,E
1703146355.9,286047000.2,N
1703146375.7,286046999.9,P
1703146395.6,286047000.4,N
1703146415.4,286047002.1,Y
1703146435.3,286046999.7,P
1703146455.1,286046999.7,N
1703146475.8,286046998.5,P
1703146495.7,286046998.4,N
1703146515.5,286046998.8,N
1703146535.4,286047001.1,N
1703146555.2,286046998.6,N
1703146575.0,286047000.6,N
1703146575.9,286047000.6,N
1703146595.8,286047000.0,N
1703146615.6,286047001.1,N
1703146635.5,286047000.6,N
1703146655.3,286047001.0,N
1703146675.1,286046998.5,N
1703146695.9,286046998.5,N
1703146715.7,286046999.0,N
1703146735.6,286046998.2,N
1703146755.4,286046998.1,N
1703146775.2,286046998.8,N
1703146795.1,286047000.4,N
1703146796.0,286047000.4,N
1703146815.8,286047000.4,N
1703146835.6,286046999.7,N
1703146855.5,286047000.6,N
1703146875.3,286046998.5,N
1703146895.2,286046998.7,N
1703146915.9,286046998.8,N
1703146935.7,286047000.7,N
1703146955.6,286047002.1,N
1703146975.4,286047001.5,N
1703146995.3,286047002.8,N
1703147015.1,286047002.6,N
1703147035.8,286047002.3,N
1703147055.7,286047002.3,N
1703147075.5,286047002.8,N
1703147095.4,286047001.6,N
1703147115.2,286047001.8,N
1703147135.0,286047001.8,N
1703147135.9,286047001.8,N
1703147155.8,286047004.4,N
1703147175.6,286047002.2,N
1703147195.4,286047001.8,N
1703147215.3,286047002.0,N
1703147235.1,286047002.7,N
1703147255.9,286047000.4,N
1703147275.7,286047000.5,N
1703147295.5,286046999.9,N
1703147315.4,286047000.3,N
1703147335.2,286047001.0,N
1703147355.0,286047000.1,N
1703147356.0,286047000.1,N
1703147375.8,286047001.6,N
1703147395.6,286047000.6,N
1703147415.5,286047000.2,N
1703147435.3,286047000.5,N
1703147455.1,286046998.2,N
1703147475.9,286046999.4,N
1703147495.7,286046998.6,N
1703147515.6,286046998.1,N
1703147535.4,286046999.7,N
1703147555.2,286047001.9,N
1703147575.1,286047002.9,N
1703147576.0,286047002.9,N
1703147595.8,286047003.3,N
1703147615.6,286047005.4,Y
1703147635.5,286047001.7,P
1703147655.3,286047002.3,P
1703147675.2,286047002.4,P
1703147695.9,286047001.5,N
1703147715.7,286047000.1,N
1703147735.6,286047000.9,N
1703147755.4,286046999.8,N
1703147775.2,286047002.7,Y
1703147795.1,286047002.7,P
1703147796.0,286047002.7,P
1703147815.8,286047001.6,N
1703147835.7,286047002.2,Y
1703147855.5,286046999.4,P
1703147875.3,286046999.6,N
1703147895.2,286046999.0,N
1703147915.0,286046998.7,N
1703147915.9,286046998.7,N
1703147935.8,286046997.1,N
1703147955.6,286046996.6,N
1703147975.4,286046997.1,N
1703147995.3,286046998.7,N
1703148015.1,286047000.7,N
1703148035.8,286047001.1,N
1703148055.7,286046998.2,N
1703148075.5,286047000.0,N
1703148095.4,286047002.8,N
1703148115.2,286046998.3,N
1703148135.0,286046998.6,N
1703148135.9,286046998.6,N
1703148155.8,286047001.0,N
1703148175.6,286047001.0,N
1703148195.4,286046999.3,N
1703148215.3,286046999.0,N
1703148235.1,286046998.4,N
1703148255.9,286046998.8,N
1703148275.7,286047002.8,N
1703148295.5,286047002.7,N
1703148315.4,286047002.7,N
1703148335.2,286047002.3,N
1703148355.0,286046998.2,N
1703148356.0,286046998.2,N
1703148375.8,286046999.4,N
1703148395.6,286046998.2,N
1703148415.5,286046998.6,N
1703148435.3,286047000.6,N
1703148455.1,286047000.5,N
1703148475.9,286046998.9,N
1703148495.7,286046998.7,N
1703148515.5,286047001.1,N
1703148535.4,286047000.8,N
1703148555.2,286046999.9,N
1703148575.1,286047002.5,N
1703148576.0,286047002.5,N
1703148595.8,286046999.8,N
1703148615.6,286047000.0,N
1703148635.5,286047000.2,N
1703148655.3,286047002.4,N
1703148675.1,286047002.6,N
1703148695.9,286047004.3,N
1703148715.7,286047003.5,N
1703148735.6,286047001.3,N
1703148755.4,286047001.6,N
1703148775.2,286046999.8,N
1703148795.1,286047000.9,N
1703148796.0,286047000.9,N
1703148815.8,286047002.8,N
1703148835.6,286047002.5,N
1703148855.5,286047002.5,N
1703148875.3,286047002.8,N
1703148895.2,286047002.5,N
1703148915.9,286047002.6,N
1703148935.7,286046999.7,N
1703148955.6,286046999.8,N
1703148975.4,286047000.6,N
1703148995.2,286047000.2,N
1703149015.1,286047002.7,N
1703149016.0,286047002.7,N
1703149035.8,286047002.5,N
1703149055.7,286047002.0,N
1703149075.5,286047002.0,N
1703149095.3,286047002.0,N
1703149115.2,286047000.2,N
1703149135.0,286047000.9,N
1703149135.9,286047000.9,N
1703149155.8,286046998.3,N
1703149175.6,286047000.0,N
1703149195.4,286047002.3,N
